[ hide orbit diagram ]
For accurate long-term ephemerides, please instead use our Horizons system.This orbit viewer was implemented using two-body methods, and hence should not be used for determining accurate long-term trajectories (over several years or decades) or planetary encounter circumstances.
Orbital Elements at Epoch 2459200.5 (2020-Dec-17.0) TDB
Reference: JPL 27 (heliocentric ecliptic J2000)
Element | Value | Uncertainty (1-sigma) | Units |
e | .1405729475926039 | 3.301e-08 | |
a | 2.376891363689984 | 7.7957e-09 | au |
q | 2.04276473858868 | 7.9046e-08 | au |
i | 1.860227619666398 | 4.701e-06 | deg |
node | 25.44145936975468 | 0.0001192 | deg |
peri | 75.0541221062591 | 0.00012055 | deg |
M | 351.4323313701892 | 1.7216e-05 | deg |
tp | 2459232.354631548674 (2021-Jan-17.85463155) | 6.4038e-05 | TDB |
period | 1338.481663217166 3.66 | 6.5849e-06 1.803e-08 | d yr |
n | .268961473207415 | 1.3232e-09 | deg/d |
Q | 2.711017988791289 | 8.8916e-09 | au |
|
| | Orbit Determination Parameters
Additional Information
|
[ show covariance matrix ]
Physical Parameter Table
Parameter |
Symbol |
Value |
Units |
Sigma |
Reference |
Notes |
absolute magnitude |
H |
15.3 |
|
n/a |
MPO435793 |
|
diameter |
diameter |
4.686 |
km |
0.070 |
urn:nasa:pds:neowise_diameters_albedos::2.0[mainbelt] (http://adsabs.harvard.edu/abs/2011ApJ...741...68M) |
|
rotation period |
rot_per |
13.916 |
h |
n/a |
LCDB (Rev. 2020-October); Warner et al., 2009 |
Result based on less than full coverage, so that the period may be wrong by 30 percent or so. Published Reference List: [Chang, C.K.; Ip, W.-H.; Lin, H.-W.; Cheng, Y.C.; et al. (2015) Astrophys. J. Supp. Ser. 219, A27.] [Waszczak, A.; Chang, C.-K.; Ofeck, E.O.; Laher, F.; et al. (2015) Astron. J. 150, A75.] |
geometric albedo |
albedo |
0.046 |
|
0.004 |
urn:nasa:pds:neowise_diameters_albedos::2.0[mainbelt] (http://adsabs.harvard.edu/abs/2011ApJ...741...68M) |
|
|
9884 Příbram | Discovered 1994 Oct. 12 by M. Tichy and Z. Moravec at Klet. |
The town of Příbram, in central Bohemia, was the impact site, on 1959 Apr. 7, of the first photographic detection of a meteorite fall. Analysis of the fireball trajectory by Z. Ceplecha led to the discovery of four meteorites. |
NOTE: some special characters may not display properly (any characters within {} are an attempt to place the proper accent above a character) |
Reference: 20000124/MPCPages.arc | Last Updated: 2013-03-29 |
|
[ show close-approach data ]
Alternate Designations
1994 TN3 = 1974 HB2 = 1992 EO19 |
|
|